| time (UTC) | temp C | wind direction | speed KPH | gust KPH | rain 1hr cm | rain 24hr cm | rain mn cm | humidity % | barometer mb |
| 20260906133133 | 26 | 0 | 0.0 | 1.6 | 0.00 | 1.68 | 0.00 | 88 | 1014.6 |
| 20260906131602 | 26 | 0 | 0.0 | 0.0 | 0.00 | 1.68 | 0.00 | 88 | 1014.4 |
| 20260906130115 | 25 | 0 | 0.0 | 3.2 | 0.00 | 1.68 | 0.00 | 89 | 1014.3 |
| 20260906124608 | 25 | 0 | 0.0 | 3.2 | 0.00 | 1.68 | 0.00 | 90 | 1014.2 |
| 20260906123100 | 25 | 0 | 0.0 | 3.2 | 0.00 | 1.68 | 0.00 | 90 | 1014.0 |
| 20260906122536 | 25 | 44 | 0.0 | 0.0 | 0.00 | 1.68 | 0.00 | 91 | 1013.6 |
| 20260906122036 | 25 | 44 | 0.0 | 0.0 | 0.00 | 1.68 | 0.00 | 90 | 1013.5 |
| 20260906121557 | 24 | 0 | 0.0 | 0.0 | 0.00 | 1.68 | 0.00 | 90 | 1013.9 |
| 20260906120105 | 24 | 0 | 0.0 | 0.0 | 0.00 | 1.68 | 0.00 | 90 | 1013.7 |
| 20260906114559 | 24 | 0 | 0.0 | 0.0 | 0.00 | 1.68 | 0.00 | 89 | 1013.6 |
| 20260906113058 | 24 | 0 | 0.0 | 0.0 | 0.00 | 1.68 | 0.00 | 89 | 1013.4 |
| 20260906111619 | 24 | 0 | 0.0 | 0.0 | 0.00 | 1.68 | 0.00 | 89 | 1013.2 |
| 20260906110100 | 25 | 0 | 0.0 | 0.0 | 0.00 | 1.68 | 0.00 | 89 | 1013.1 |
| 20260906104602 | 25 | 0 | 0.0 | 0.0 | 0.00 | 1.68 | 0.00 | 89 | 1013.0 |
| 20260906103102 | 25 | 0 | 0.0 | 0.0 | 0.00 | 1.68 | 0.00 | 89 | 1012.9 |
| 20260906101604 | 25 | 0 | 0.0 | 0.0 | 0.00 | 1.68 | 0.00 | 89 | 1013.0 |
| 20260906100100 | 25 | 0 | 0.0 | 0.0 | 0.00 | 1.68 | 0.00 | 89 | 1012.9 |
| 20260906094603 | 25 | 0 | 0.0 | 0.0 | 0.00 | 1.68 | 0.00 | 89 | 1012.7 |
| 20260906093103 | 25 | 0 | 0.0 | 0.0 | 0.00 | 1.68 | 0.00 | 89 | 1012.8 |
| 20260906091601 | 25 | 0 | 0.0 | 0.0 | 0.00 | 1.68 | 0.00 | 89 | 1012.7 |
| 20260906090103 | 25 | 0 | 0.0 | 0.0 | 0.00 | 1.68 | 0.00 | 89 | 1012.5 |
| 20260906084602 | 25 | 0 | 0.0 | 0.0 | 0.00 | 1.68 | 0.00 | 89 | 1012.7 |
| 20260906083100 | 25 | 0 | 0.0 | 0.0 | 0.00 | 1.68 | 0.00 | 88 | 1012.6 |
| 20260906081604 | 25 | 0 | 0.0 | 0.0 | 0.00 | 1.68 | 0.00 | 88 | 1012.6 |
| 20260906080104 | 25 | 0 | 0.0 | 0.0 | 0.00 | 1.68 | 0.00 | 88 | 1012.8 |
| 20260906074601 | 25 | 0 | 0.0 | 0.0 | 0.00 | 1.68 | 0.00 | 88 | 1012.8 |
| 20260906073103 | 25 | 0 | 0.0 | 0.0 | 0.00 | 1.68 | 0.00 | 88 | 1012.9 |
| 20260906071603 | 25 | 0 | 0.0 | 0.0 | 0.00 | 1.68 | 0.00 | 88 | 1012.9 |
| 20260906070100 | 25 | 0 | 0.0 | 0.0 | 0.00 | 1.68 | 0.00 | 88 | 1013.0 |
| 20260906064600 | 25 | 0 | 0.0 | 0.0 | 0.00 | 1.68 | 0.00 | 88 | 1013.1 |
| 20260906063100 | 25 | 0 | 0.0 | 0.0 | 0.00 | 1.68 | 0.00 | 89 | 1013.1 |
| 20260906061600 | 25 | 0 | 0.0 | 0.0 | 0.00 | 1.68 | 0.00 | 89 | 1013.2 |
| 20260906060059 | 25 | 0 | 0.0 | 0.0 | 0.00 | 1.68 | 0.00 | 89 | 1013.3 |
| 20260906054607 | 25 | 0 | 0.0 | 0.0 | 0.00 | 1.68 | 0.00 | 89 | 1013.2 |
| 20260906053102 | 25 | 0 | 0.0 | 0.0 | 0.00 | 1.68 | 0.00 | 88 | 1013.0 |
| 20260906051613 | 25 | 0 | 0.0 | 0.0 | 0.00 | 1.68 | 0.00 | 88 | 1012.9 |
| 20260906050106 | 25 | 0 | 0.0 | 0.0 | 0.00 | 1.68 | 0.00 | 88 | 1013.0 |
| 20260906044608 | 25 | 0 | 0.0 | 0.0 | 0.00 | 1.68 | 1.68 | 88 | 1013.0 |
| 20260906043102 | 25 | 0 | 0.0 | 0.0 | 0.00 | 1.68 | 1.68 | 88 | 1013.0 |
| 20260906041601 | 25 | 0 | 0.0 | 0.0 | 0.00 | 1.68 | 1.68 | 88 | 1012.9 |
| 20260906040139 | 25 | 0 | 0.0 | 0.0 | 0.00 | 1.68 | 1.68 | 87 | 1013.0 |
| 20260906034620 | 25 | 0 | 0.0 | 0.0 | 0.00 | 1.68 | 1.68 | 87 | 1013.0 |
| 20260906033107 | 25 | 0 | 0.0 | 0.0 | 0.00 | 1.68 | 1.68 | 87 | 1013.3 |
| 20260906031559 | 25 | 0 | 0.0 | 0.0 | 0.00 | 1.68 | 1.68 | 87 | 1013.3 |
| 20260906030104 | 25 | 0 | 0.0 | 0.0 | 0.00 | 1.68 | 1.68 | 87 | 1013.1 |
| 20260906024613 | 26 | 0 | 0.0 | 0.0 | 0.00 | 1.68 | 1.68 | 87 | 1013.0 |
| 20260906023103 | 26 | 0 | 0.0 | 0.0 | 0.00 | 1.68 | 1.68 | 87 | 1012.8 |
| 20260906021601 | 26 | 0 | 0.0 | 0.0 | 0.00 | 1.68 | 1.68 | 87 | 1012.5 |
| 20260906014600 | 26 | 0 | 0.0 | 1.6 | 0.00 | 1.68 | 1.68 | 87 | 1012.4 |
| 20260906013112 | 26 | 0 | 0.0 | 1.6 | 0.00 | 1.68 | 1.68 | 87 | 1012.3 |
| 20260906011558 | 26 | 0 | 0.0 | 0.0 | 0.00 | 1.68 | 1.68 | 87 | 1012.1 |
| 20260906004604 | 27 | 0 | 0.0 | 0.0 | 0.00 | 1.68 | 1.68 | 86 | 1012.3 |
| 20260906003104 | 27 | 0 | 0.0 | 3.2 | 0.00 | 1.68 | 1.68 | 85 | 1012.4 |
| 20260906001608 | 27 | 0 | 0.0 | 3.2 | 0.00 | 1.68 | 1.68 | 85 | 1012.6 |
| 20260906000104 | 27 | 0 | 0.0 | 3.2 | 0.00 | 1.68 | 1.68 | 85 | 1012.9 |
| 20260905234606 | 27 | 0 | 0.0 | 11.3 | 0.00 | 1.68 | 1.68 | 85 | 1013.0 |
| 20260905233106 | 27 | 0 | 0.0 | 6.4 | 0.00 | 1.68 | 1.68 | 85 | 1013.0 |
| 20260905231605 | 28 | 38 | 0.0 | 8.0 | 0.00 | 1.68 | 1.68 | 86 | 1012.8 |
| 20260905230106 | 29 | 0 | 3.2 | 8.0 | 0.00 | 1.68 | 1.68 | 84 | 1012.6 |
| 20260905224616 | 30 | 117 | 1.6 | 6.4 | 0.00 | 1.68 | 1.68 | 81 | 1012.4 |
| 20260905223116 | 30 | 0 | 0.0 | 3.2 | 0.00 | 1.68 | 1.68 | 80 | 1012.5 |
| 20260905221605 | 30 | 0 | 0.0 | 3.2 | 0.00 | 1.68 | 1.68 | 79 | 1012.6 |
| 20260905214603 | 30 | 0 | 0.0 | 0.0 | 0.00 | 1.68 | 1.68 | 78 | 1012.4 |
| 20260905213106 | 31 | 0 | 0.0 | 6.4 | 0.00 | 1.68 | 1.68 | 76 | 1012.5 |
| 20260905211600 | 31 | 0 | 0.0 | 3.2 | 0.00 | 1.68 | 1.68 | 77 | 1012.6 |
| 20260905210107 | 31 | 0 | 0.0 | 4.8 | 0.00 | 1.68 | 1.68 | 75 | 1012.7 |
| 20260905204606 | 32 | 0 | 0.0 | 3.2 | 0.00 | 1.68 | 1.68 | 76 | 1012.8 |
| 20260905203102 | 32 | 0 | 0.0 | 0.0 | 0.00 | 1.68 | 1.68 | 71 | 1012.9 |
| 20260905201559 | 32 | 0 | 0.0 | 4.8 | 0.00 | 1.68 | 1.68 | 72 | 1013.0 |
| 20260905200106 | 32 | 0 | 0.0 | 4.8 | 0.00 | 1.68 | 1.68 | 74 | 1013.1 |
| 20260905194603 | 32 | 0 | 0.0 | 4.8 | 0.00 | 1.68 | 1.68 | 77 | 1013.0 |
| 20260905193103 | 32 | 189 | 0.0 | 8.0 | 0.00 | 1.68 | 1.68 | 78 | 1013.0 |
| 20260905191608 | 31 | 0 | 0.0 | 3.2 | 0.00 | 1.68 | 1.68 | 78 | 1013.4 |
| 20260905190104 | 31 | 0 | 0.0 | 3.2 | 0.00 | 1.68 | 1.68 | 79 | 1013.7 |
| 20260905184608 | 32 | 0 | 0.0 | 4.8 | 0.00 | 1.68 | 1.68 | 77 | 1013.9 |
| 20260905183112 | 32 | 0 | 0.0 | 4.8 | 0.00 | 1.68 | 1.68 | 72 | 1014.0 |
| 20260905181601 | 33 | 0 | 0.0 | 6.4 | 0.00 | 1.68 | 1.68 | 70 | 1014.1 |
| 20260905180108 | 32 | 0 | 0.0 | 3.2 | 0.00 | 1.68 | 1.68 | 74 | 1014.2 |
| 20260905174602 | 32 | 277 | 1.6 | 6.4 | 0.00 | 1.68 | 1.68 | 75 | 1014.3 |
| 20260905173121 | 32 | 0 | 0.0 | 1.6 | 0.00 | 1.68 | 1.68 | 78 | 1014.6 |
| 20260905171604 | 30 | 76 | 0.0 | 4.8 | 0.00 | 1.68 | 1.68 | 81 | 1015.0 |
| 20260905170115 | 28 | 0 | 0.0 | 4.8 | 0.00 | 1.68 | 1.68 | 86 | 1015.0 |
| 20260905164609 | 27 | 15 | 0.0 | 6.4 | 0.13 | 1.68 | 1.68 | 90 | 1015.2 |
| 20260905163122 | 27 | 0 | 0.0 | 0.0 | 0.46 | 1.68 | 1.68 | 91 | 1015.1 |
| 20260905161611 | 26 | 0 | 0.0 | 0.0 | 1.47 | 1.68 | 1.68 | 91 | 1015.1 |
| 20260905160106 | 25 | 0 | 0.0 | 0.0 | 1.68 | 1.68 | 1.68 | 89 | 1015.2 |
| 20260905154611 | 25 | 0 | 0.0 | 3.2 | 1.55 | 1.55 | 1.55 | 87 | 1015.2 |
| 20260905153103 | 26 | 0 | 0.0 | 3.2 | 1.22 | 1.22 | 1.22 | 85 | 1015.3 |
| 20260905151604 | 29 | 0 | 0.0 | 4.8 | 0.20 | 0.20 | 0.20 | 84 | 1015.2 |
| 20260905150103 | 30 | 0 | 0.0 | 0.0 | 0.00 | 0.00 | 0.00 | 83 | 1015.0 |
| 20260905144604 | 30 | 0 | 0.0 | 3.2 | 0.00 | 0.00 | 0.00 | 82 | 1014.9 |
| 20260905143107 | 30 | 0 | 0.0 | 1.6 | 0.00 | 0.00 | 0.00 | 83 | 1014.9 |
| 20260905141606 | 30 | 0 | 0.0 | 3.2 | 0.00 | 0.00 | 0.00 | 85 | 1014.9 |
| 20260905134602 | 29 | 0 | 0.0 | 0.0 | 0.00 | 0.00 | 0.00 | 86 | 1014.7 |